Fremont, MI

3:36 AM EST on December 09, 2019 (GMT -0500)
Fremont

Weather History for KFFX - October, 2019

Change the Weather History Date:

Wednesday, October 2, 2019

  Actual Average (KMKG) Record (KMKG)
Temperature  
Mean Temperature 58 °F -  
Max Temperature 67 °F 65 °F 83 °F (1953)
Min Temperature 50 °F 46 °F 28 °F (1974)
Degree Days  
Heating Degree Days 6    
Growing Degree Days 8 (Base 50)    
Moisture  
Dew Point 56 °F    
Average Humidity 94    
Maximum Humidity 99    
Minimum Humidity 84    
Precipitation  
Precipitation 0.00 in - - ()
Sea Level Pressure  
Sea Level Pressure 29.96 in    
Wind  
Wind Speed 8 mph ()    
Max Wind Speed 20 mph    
Max Gust Speed 26 mph    
Visibility 8.7 miles    
Events Rain    
Averages and records for this station are not official NWS values.
T = Trace of Precipitation, MM = Missing Value Source: Averaged Metar Reports

Daily Weather History Graph

Daily Weather History Graph

Search for Another Location

Airport or City:

Astronomy

Oct. 02, 2019 Rise Set
Actual Time 7:42 AM EDT 7:23 PM EDT
Civil Twilight 7:13 AM EDT 7:52 PM EDT
Nautical Twilight 6:40 AM EDT 8:25 PM EDT
Astronomical Twilight 6:07 AM EDT 8:58 PM EDT
Moon 12:14 PM EDT (10/2) 10:09 PM EDT (10/2)
Length of Visible Light 12h 38m
Length of Day
11h 41m
Waxing Crescent, 20% of the Moon is Illuminated
Oct 2
Waxing Crescent
Oct 5
First Quarter
Oct 13
Full
Oct 21
Last Quarter
Oct 27
New

Hourly Weather History & Observations

Time (EDT) Temp. Dew Point Humidity Pressure Visibility Wind Dir Wind Speed Gust Speed Precip Events Conditions
12:15 AM 67.5 °F 67.1 °F 99% 29.88 in 7.0 mi NNW 6.9 mph - N/A Rain Rain
12:16 AM 67.5 °F 67.1 °F 99% 29.89 in 7.0 mi NNW 6.9 mph - N/A Rain Rain
12:35 AM 67.1 °F 66.7 °F 99% 29.88 in 4.0 mi North 4.6 mph - N/A Rain Rain
12:58 AM 67.3 °F 67.1 °F 99% 29.91 in 4.0 mi Calm Calm - N/A Rain Heavy Rain
1:16 AM 66.2 °F 66.0 °F 99% 29.92 in 7.0 mi North 5.8 mph - N/A Rain Heavy Rain
1:35 AM 65.5 °F 65.3 °F 99% 29.92 in 7.0 mi Calm Calm - N/A Rain Rain
1:36 AM 65.5 °F 65.3 °F 99% 29.92 in 7.0 mi Calm Calm - N/A Rain Rain
1:55 AM 64.4 °F 64.0 °F 99% 29.91 in 10.0 mi NNE 5.8 mph - N/A Rain Light Rain
1:56 AM 64.2 °F 63.9 °F 99% 29.91 in 10.0 mi NNE 5.8 mph - N/A Rain Light Rain
2:19 AM 63.7 °F 63.3 °F 99% 29.91 in 10.0 mi North 4.6 mph - N/A Rain Rain
2:37 AM 62.8 °F 62.2 °F 98% 29.89 in 10.0 mi NE 5.8 mph - N/A Rain Light Rain
2:55 AM 62.1 °F 61.7 °F 99% 29.87 in 10.0 mi ENE 9.2 mph - N/A Rain Light Rain
3:15 AM 61.9 °F 61.3 °F 98% 29.88 in 10.0 mi ESE 4.6 mph - N/A Rain Light Rain
3:35 AM 61.9 °F 61.7 °F 99% 29.87 in 10.0 mi East 8.1 mph - N/A Rain Rain
3:58 AM 61.7 °F 61.3 °F 99% 29.88 in 10.0 mi NE 3.5 mph - N/A   Drizzle
4:16 AM 61.2 °F 60.8 °F 99% 29.86 in 10.0 mi ENE 8.1 mph - N/A Rain Light Rain
4:35 AM 60.8 °F 60.4 °F 99% 29.86 in 10.0 mi NE 6.9 mph - N/A   Overcast
4:55 AM 60.8 °F 60.1 °F 97% 29.87 in 10.0 mi NE 3.5 mph - N/A   Overcast
5:19 AM 60.3 °F 59.5 °F 97% 29.88 in 10.0 mi NNE 8.1 mph - N/A Rain Light Rain
5:37 AM 59.9 °F 59.2 °F 97% 29.89 in 10.0 mi NNE 8.1 mph - N/A   Drizzle
5:55 AM 59.2 °F 58.6 °F 98% 29.90 in 10.0 mi NNE 4.6 mph - N/A Rain Rain
5:56 AM 59.2 °F 58.6 °F 98% 29.90 in 7.0 mi NNE 5.8 mph - N/A Rain Rain
6:15 AM 58.6 °F 58.1 °F 98% 29.89 in 10.0 mi NE 8.1 mph - N/A Rain Light Rain
6:35 AM 58.5 °F 58.1 °F 99% 29.89 in 10.0 mi NNE 9.2 mph - N/A Rain Rain
6:58 AM 58.1 °F 57.6 °F 98% 29.91 in 7.0 mi NE 9.2 mph - N/A Rain Rain
7:16 AM 57.7 °F 57.0 °F 97% 29.91 in 10.0 mi NE 8.1 mph - N/A Rain Rain
7:35 AM 57.4 °F 56.8 °F 98% 29.93 in 4.0 mi NNE 5.8 mph - N/A Rain Heavy Rain
7:36 AM 57.4 °F 56.8 °F 98% 29.93 in 4.0 mi NE 5.8 mph - N/A Rain Rain
7:55 AM 56.5 °F 55.9 °F 98% 29.93 in 4.0 mi NE 10.4 mph - N/A Rain Heavy Rain
7:56 AM 56.3 °F 55.8 °F 98% 29.93 in 4.0 mi NE 10.4 mph 16.1 mph N/A Rain Heavy Rain
8:19 AM 56.3 °F 55.6 °F 97% 29.94 in 7.0 mi NE 12.7 mph - N/A Rain Rain
8:37 AM 55.8 °F 55.0 °F 97% 29.95 in 10.0 mi NE 11.5 mph 17.3 mph N/A Rain Rain
8:55 AM 55.6 °F 54.7 °F 97% 29.96 in 7.0 mi NE 8.1 mph - N/A   Drizzle
8:56 AM 55.6 °F 54.7 °F 97% 29.96 in 7.0 mi NE 9.2 mph - N/A   Drizzle
9:15 AM 55.4 °F 54.1 °F 96% 29.96 in 10.0 mi NE 11.5 mph 17.3 mph N/A Rain Light Rain
9:16 AM 55.4 °F 54.1 °F 96% 29.96 in 10.0 mi NE 10.4 mph 17.3 mph N/A Rain Light Rain
9:35 AM 55.0 °F 54.1 °F 97% 29.95 in 10.0 mi NE 10.4 mph - N/A   Light Drizzle
9:40 AM 55.0 °F 54.3 °F 97% 29.96 in 10.0 mi NE 11.5 mph 16.1 mph N/A   Light Drizzle
9:58 AM 55.0 °F 54.1 °F 97% 29.96 in 10.0 mi ENE 8.1 mph - N/A   Overcast
10:16 AM 55.4 °F 54.3 °F 96% 29.96 in 7.0 mi ENE 10.4 mph - N/A   Overcast
10:35 AM 56.3 °F 55.4 °F 97% 29.96 in 4.0 mi ENE 9.2 mph - N/A   Light Drizzle
10:55 AM 56.3 °F 55.4 °F 97% 29.97 in 5.0 mi NE 9.2 mph - N/A Rain Light Rain
10:56 AM 56.3 °F 55.4 °F 97% 29.97 in 5.0 mi NE 9.2 mph - N/A Rain Light Rain
11:19 AM 56.5 °F 55.6 °F 97% 29.97 in 7.0 mi ENE 10.4 mph 16.1 mph N/A   Overcast
11:37 AM 57.0 °F 56.3 °F 97% 29.97 in 3.0 mi ENE 6.9 mph - N/A   Overcast
11:55 AM 57.2 °F 56.3 °F 97% 29.98 in 5.0 mi ENE 9.2 mph - N/A   Overcast
12:15 PM 58.1 °F 57.0 °F 96% 29.97 in 10.0 mi East 13.8 mph - N/A   Overcast
12:35 PM 58.6 °F 57.0 °F 94% 29.97 in 10.0 mi East 12.7 mph 20.7 mph N/A   Overcast
12:58 PM 59.0 °F 57.0 °F 93% 29.98 in 10.0 mi East 9.2 mph - N/A   Overcast
1:16 PM 59.2 °F 57.2 °F 93% 29.98 in 10.0 mi ENE 11.5 mph 18.4 mph N/A   Overcast
1:35 PM 59.9 °F 57.0 °F 90% 29.98 in 10.0 mi ENE 15.0 mph 19.6 mph N/A   Overcast
1:55 PM 59.5 °F 56.5 °F 90% 29.98 in 10.0 mi ENE 16.1 mph 21.9 mph N/A   Overcast
2:19 PM 59.4 °F 56.5 °F 90% 29.98 in 10.0 mi East 9.2 mph - N/A   Overcast
2:37 PM 59.2 °F 56.5 °F 91% 29.98 in 10.0 mi East 15.0 mph 19.6 mph N/A   Overcast
2:55 PM 59.0 °F 56.3 °F 91% 29.98 in 10.0 mi ENE 12.7 mph - N/A   Overcast
2:56 PM 59.0 °F 56.3 °F 91% 29.98 in 10.0 mi ENE 12.7 mph - N/A   Overcast
3:15 PM 59.2 °F 56.3 °F 90% 29.98 in 10.0 mi East 12.7 mph 20.7 mph N/A   Overcast
3:16 PM 59.2 °F 56.1 °F 90% 29.98 in 10.0 mi East 13.8 mph 20.7 mph N/A   Overcast
3:35 PM 59.0 °F 56.1 °F 90% 29.99 in 10.0 mi ENE 13.8 mph 20.7 mph N/A   Overcast
3:40 PM 59.0 °F 55.8 °F 89% 29.99 in 10.0 mi ENE 11.5 mph 19.6 mph N/A   Overcast
3:57 PM 58.3 °F 55.6 °F 91% 30.00 in 10.0 mi ENE 19.6 mph 23.0 mph N/A   Overcast
4:16 PM 58.1 °F 54.5 °F 88% 30.00 in 10.0 mi ENE 13.8 mph - N/A   Overcast
4:35 PM 57.4 °F 54.5 °F 90% 30.01 in 10.0 mi East 13.8 mph 18.4 mph N/A   Overcast
4:55 PM 56.5 °F 53.8 °F 91% 30.01 in 10.0 mi ENE 11.5 mph 20.7 mph N/A   Overcast
5:19 PM 56.7 °F 53.2 °F 88% 30.02 in 10.0 mi ENE 10.4 mph 19.6 mph N/A   Overcast
5:37 PM 57.0 °F 52.3 °F 84% 30.01 in 10.0 mi East 13.8 mph 19.6 mph N/A   Overcast
5:55 PM 56.5 °F 52.7 °F 87% 30.02 in 10.0 mi East 10.4 mph - N/A   Overcast
5:56 PM 56.5 °F 52.7 °F 87% 30.02 in 10.0 mi ENE 10.4 mph - N/A   Overcast
6:15 PM 56.3 °F 51.8 °F 85% 30.02 in 10.0 mi ENE 16.1 mph 21.9 mph N/A   Overcast
6:16 PM 56.3 °F 51.8 °F 85% 30.02 in 10.0 mi ENE 15.0 mph 21.9 mph N/A   Overcast
6:35 PM 55.8 °F 51.8 °F 87% 30.02 in 10.0 mi ENE 15.0 mph - N/A   Overcast
6:58 PM 55.4 °F 51.1 °F 85% 30.03 in 10.0 mi East 12.7 mph 17.3 mph N/A   Overcast
7:16 PM 54.9 °F 50.9 °F 86% 30.03 in 10.0 mi East 15.0 mph - N/A   Overcast
7:35 PM 54.5 °F 51.3 °F 89% 30.03 in 10.0 mi East 13.8 mph 18.4 mph N/A Rain Rain
7:36 PM 54.5 °F 51.3 °F 89% 30.03 in 10.0 mi East 13.8 mph 18.4 mph N/A Rain Rain
7:55 PM 53.6 °F 51.8 °F 94% 30.03 in 10.0 mi East 11.5 mph 19.6 mph N/A Rain Heavy Rain
7:56 PM 53.6 °F 51.8 °F 94% 30.03 in 7.0 mi East 11.5 mph 19.6 mph N/A Rain Heavy Rain
8:19 PM 52.9 °F 51.8 °F 96% 30.03 in 10.0 mi East 11.5 mph 18.4 mph N/A Rain Rain
8:37 PM 52.9 °F 51.8 °F 96% 30.03 in 10.0 mi East 9.2 mph - N/A Rain Light Rain
8:55 PM 52.7 °F 50.9 °F 94% 30.02 in 10.0 mi East 13.8 mph 19.6 mph N/A   Overcast
9:15 PM 51.8 °F 49.3 °F 91% 30.02 in 10.0 mi East 18.4 mph 26.5 mph N/A   Overcast
9:35 PM 51.8 °F 48.9 °F 90% 30.02 in 10.0 mi East 11.5 mph 24.2 mph N/A   Overcast
9:40 PM 51.8 °F 49.1 °F 90% 30.03 in 10.0 mi East 11.5 mph 17.3 mph N/A   Overcast
9:58 PM 51.4 °F 48.2 °F 89% 30.03 in 10.0 mi ESE 10.4 mph 21.9 mph N/A   Overcast
10:16 PM 51.3 °F 48.6 °F 90% 30.03 in 10.0 mi East 10.4 mph 18.4 mph N/A Rain Light Rain
10:35 PM 51.3 °F 48.4 °F 90% 30.02 in 10.0 mi East 12.7 mph 18.4 mph N/A Rain Light Rain
10:55 PM 50.9 °F 49.1 °F 94% 30.03 in 10.0 mi East 11.5 mph - N/A Rain Light Rain
10:56 PM 50.9 °F 49.1 °F 94% 30.03 in 10.0 mi East 10.4 mph - N/A Rain Light Rain
11:19 PM 50.9 °F 49.3 °F 94% 30.03 in 7.0 mi East 11.5 mph 16.1 mph N/A Rain Rain
11:37 PM 50.5 °F 49.3 °F 95% 30.02 in 5.0 mi East 12.7 mph 18.4 mph N/A Rain Light Rain
11:55 PM 50.4 °F 49.3 °F 96% 30.03 in 5.0 mi East 9.2 mph 16.1 mph N/A Rain Light Rain
11:56 PM 50.4 °F 49.3 °F 96% 30.03 in 7.0 mi East 9.2 mph - N/A Rain Light Rain